Find Starlink 3238

NORAD ID: 49734 Int'l Des: 2021-115 Owner: SPXS Country: US Constellation: starlink operational
LEOCIRCULAR

現在のビュー

3D地球を読み込み中...

About Starlink 3238

Starlink 3238 (NORAD 49734) is a starlink constellation satellite (v1.5) launched Dec 2, 2021 by SPXS of US. It operates in LEO, CIRCULAR orbit with a mass of 290.00 kg.

Starlink 3238について

説明を読み込み中...

次回通過

Passes for default location (London). Set your location on the main map for personalized predictions.

高度履歴

Loading altitude history...

軌道要素

1 49734U 21115L 26171.33336806 .00002835 00000-0 16583-3 0 9990
2 49734 53.1599 48.1568 0000211 41.1782 330.3691 15.15081094 5767
Epoch: Jun 20, 2026 • Age: 5 hours

現在のステータス

高度 524.9 km
速度 7.60 km/s
衛星直下点 -15.73°S, 62.77°W
打ち上げ日 Dec 2, 2021
運用期間 4.5 years
タイプ internet

技術仕様

分類 Payload
質量 290.00 kg
乾燥質量 270.00 kg
総質量 290.00 kg
長さ 0.20 m
直径 2.80 m
スパン 9.00 m
形状 Box + pan
製造者 SPXS
バスタイプ Starlink
フェーズステータス In Orbit
所有者/国 SPXS/US

Most Searched